Location: Bühlerzell
(49.0019°N, 9.9172°E)
Time: 16:56:19
(UTC+00:00)

Daily predictions for brighter satellites

Satellite Brightness Start Highest point End
(mag) Time Altitude Azimuth Time Altitude Azimuth Time Altitude Azimuth
Meteor 1-21 4.3 16:28:31 10° SSW 16:34:07 86° WNW 16:39:46 10° NNE
Okean 2 3.2 16:32:29 10° S 16:36:17 66° E 16:40:06 10° NNE
ATLAS 3B R/B 4.2 16:30:23 10° NW 16:36:54 27° N 16:43:22 10° NE
ARIANE 5 R/B 2.6 16:34:50 10° SSE 16:39:57 62° ENE 16:45:05 10° N
Cosmos 1821 Rocket 4.0 16:34:32 10° N 16:40:44 89° WSW 16:46:49 10° S
USA 305 2.9 16:37:19 10° SW 16:40:46 54° SE 16:44:45 10° ENE
YAOGAN 1 3.6 16:37:53 10° ESE 16:41:15 23° ENE 16:44:38 10° N
Cosmos 1340 Rocket 2.8 16:39:42 10° NNW 16:43:34 85° WSW 16:47:24 10° S
BREEZE-M DEB (TANK) 3.1 16:40:05 10° W 16:45:31 72° N 16:50:01 10° ENE
CZ-2D R/B 2.8 16:42:58 10° SSE 16:46:00 50° ENE 16:49:02 10° N
COSMOS 2455 3.0 16:41:04 10° NNW 16:46:59 52° NE 16:52:50 10° SE
NOSS 3-4 (A) 4.0 16:42:43 10° WSW 16:47:53 47° NW 16:53:44 10° NE
NOSS 3-4 (C) 4.0 16:42:52 10° WSW 16:48:05 47° NW 16:53:56 10° NE
BREEZE-M DEB (TANK) 4.0 16:50:10 10° W 16:52:50 41° SSW 17:01:01 10° SE
Cosmos 1515 Rocket 4.4 16:49:03 10° SSW 16:53:23 54° WNW 16:57:45 10° N
UNK 3.7 16:51:39 10° NNE 16:56:12 86° ESE 17:00:43 10° SSW
CZ-2D R/B 4.1 16:54:06 10° SE 16:57:21 27° ENE 17:00:39 10° N
NOSS 3-1 (A) 4.2 16:52:19 10° NW 16:58:44 47° NE 17:06:47 10° ESE
Cosmos 2322 Rocket 4.1 16:59:16 10° N 17:00:50 11° NNE 17:02:24 10° NE
USA 276 1.2 16:58:58 10° WNW 17:01:13 80° N 17:03:12 15° E
Cosmos 1302 Rocket 4.2 16:56:36 10° SSW 17:01:51 76° WNW 17:07:10 10° NNE
SL-16 R/B 4.5 16:59:14 10° WNW 17:01:54 13° NNW 17:04:37 10° N
RESURS DK-1 3.6 16:58:14 10° WSW 17:01:57 37° NW 17:05:42 10° NNE
SAR-Lupe-4 3.6 17:00:20 10° SSE 17:03:49 56° ENE 17:07:21 10° N
SKYMED 2 4.0 17:02:47 10° NNE 17:06:54 40° E 17:11:00 10° SSE
NOSS 3-1 (C) 4.0 17:01:32 10° NW 17:08:27 81° NE 17:17:11 10° SE
Radarsat Rocket 4.2 17:03:16 10° SE 17:08:51 44° ENE 17:14:20 10° N
Cosmos 1934 Rocket 4.0 17:03:17 10° N 17:09:25 60° ENE 17:15:36 10° SSE
SJ-12 3.9 17:06:04 10° S 17:09:52 79° WSW 17:13:43 10° NNW
CARTOSAT-1 4.4 17:09:33 10° SE 17:13:08 28° ENE 17:16:43 10° N
Cosmos 1733 Rocket 3.0 17:11:20 10° N 17:15:40 59° ENE 17:19:56 10° SSE
MOS 1 Rocket 4.3 17:12:27 10° S 17:17:26 54° W 17:22:11 10° NNW
Cosmos 2333 Rocket 3.8 17:14:07 10° N 17:17:35 16° NNE 17:19:13 14° NE
USA 59 Rocket 1.1 17:15:03 10° NW 17:18:24 44° SW 17:22:48 10° SSE
Cosmos 1980 Rocket 2.3 17:15:13 10° NNW 17:20:41 50° NE 17:26:08 10° SE
Cosmos 1992 Rocket 4.0 17:15:37 10° SSW 17:20:48 90° WSW 17:26:02 10° NNE
Meteor 2-19 Rocket 4.5 17:22:27 10° S 17:28:23 56° E 17:34:19 10° NNE
Cosmos 2369 4.2 17:25:50 10° NNW 17:31:05 37° NE 17:35:01 16° ESE
CZ-4 R/B 4.4 17:28:07 10° S 17:32:05 79° WSW 17:36:05 10° NNW
Cosmos 2219 Rocket 4.2 17:34:28 10° N 17:36:03 11° NNE 17:36:41 11° NNE
Cosmos 1486 Rocket 3.9 17:32:45 10° NNW 17:38:04 71° ENE 17:43:19 10° SSE
ARIANE 6 FM1 Upper Stage 3.4 17:34:49 10° S 17:38:27 32° SE 17:39:22 28° E
BREEZE-M DEB (TANK) 3.2 17:37:53 10° WSW 17:41:09 85° SSE 17:47:10 22° E
Cosmos 1697 Rocket 3.3 17:35:46 10° NW 17:41:21 61° WSW 17:46:54 10° S
ISS -3.7 17:42:18 10° WNW 17:45:38 63° NNE 17:46:23 46° ENE
NOAA 6 3.9 17:40:51 10° SSE 17:45:53 64° ENE 17:50:59 10° N
Okean 1-7 2.7 17:41:58 10° S 17:46:03 74° E 17:50:10 10° NNE
Cosmos 1833 Rocket 3.0 17:40:49 10° SW 17:46:26 66° WNW 17:52:04 10° NNE
SPOT 1/Viking Rocket 4.2 17:42:29 10° S 17:47:33 59° W 17:52:38 10° NNW
Cosmos 1354 Rocket 4.3 17:43:04 10° NNW 17:48:07 44° ENE 17:51:11 22° ESE
SL-16 R/B 4.3 17:44:28 10° N 17:49:34 28° WNW 17:54:39 10° WSW
USA 267 3.7 17:46:25 24° ENE 17:50:08 48° N 17:56:20 10° WNW
Cosmos 2360 Rocket 3.8 17:46:44 10° N 17:50:14 17° NE 17:50:14 17° NE
BlueWalker 3 1.9 17:48:04 10° SW 17:51:33 53° SSE 17:52:09 46° ESE
Resurs 01 Rocket 1.7 17:48:36 10° SSE 17:52:50 52° ENE 17:57:06 10° N
Cosmos 1703 Rocket 4.4 17:49:12 10° SSE 17:52:03 29° ESE 17:52:03 29° ESE
Cosmos 2228 Rocket 2.9 17:49:24 10° S 17:53:50 77° E 17:58:16 10° NNE
IRAS Rocket 4.2 17:49:20 10° SSE 17:54:47 61° ENE 18:00:18 10° N
Cosmos 2082 Rocket 2.7 17:50:19 10° S 17:55:24 37° ESE 17:56:45 32° ENE
Timation 1 Rocket 4.3 17:50:19 10° SSW 17:56:11 63° ESE 18:00:00 22° NE
Cosmos 2237 4.5 17:54:44 10° NNW 18:00:13 45° NE 18:02:06 34° E
SL-16 R/B 3.1 17:56:13 10° NNW 18:01:08 29° NE 18:01:19 29° NE
Cosmos 1535 Rocket 4.5 17:54:48 10° N 18:01:14 89° E 18:07:33 10° S
COSMO-SKYMED 1 2.3 17:58:32 12° NNE 18:02:17 90° NNW 18:06:24 10° SSW
Spot 4 Rocket 4.2 17:57:52 10° S 18:02:58 74° WSW 18:08:07 10° NNW
Cosmos 1777 Rocket 3.9 17:57:49 10° NNW 18:03:02 90° WSW 18:08:14 10° SSE
Resurs 1-3 4.3 18:01:13 10° S 18:05:26 54° W 18:09:40 10° NNW
USA 305 3.1 18:03:29 10° W 18:07:16 50° NNW 18:07:59 44° NNE
Cosmos 990 Rocket 4.0 18:04:51 10° NNW 18:10:02 57° ENE 18:11:49 38° ESE
Meteor 2-14 Rocket 4.4 18:09:04 10° S 18:15:01 56° E 18:21:02 10° NNE
YAOGAN 1 3.8 18:12:50 10° S 18:16:52 42° W 18:20:56 10° NNW
Cosmos 2173 Rocket 4.3 18:11:29 10° N 18:17:33 44° ENE 18:18:25 41° E
Meteor 1-24 Rocket 3.7 18:13:53 10° S 18:19:39 82° E 18:25:38 10° NNE
Cosmos 1908 Rocket 3.5 18:23:10 10° N 18:27:34 83° W 18:31:58 10° S
Cosmos 909 Rocket 4.5 18:21:31 10° SW 18:28:48 65° NW 18:32:44 25° NNE
ATLAS 3B R/B 3.6 18:22:39 10° NW 18:29:56 38° NNE 18:31:24 35° NE
DMSP B5D1-3 4.4 18:29:09 22° NNE 18:32:32 88° WNW 18:37:37 10° SSW
COSMOS 2455 4.3 18:27:19 10° NW 18:32:44 36° WSW 18:38:07 10° S
Cosmos 1809 Rocket 4.3 18:33:18 10° S 18:39:29 86° E 18:45:44 10° N
Cosmos 1727 Rocket 3.8 18:36:43 10° S 18:42:58 73° E 18:49:12 10° NNE
Meteor 2-5 Rocket 3.9 18:38:54 10° SSW 18:44:31 73° WNW 18:50:18 10° N
Cosmos 2322 Rocket 3.5 18:41:34 10° NNW 18:44:45 27° N 18:44:45 27° N
Cosmos 2278 4.5 18:41:45 10° NNW 18:45:41 38° NNE 18:45:41 38° NNE
NOSS 3-1 (A) 4.4 18:42:55 10° NW 18:50:00 63° SW 18:57:51 13° SSE
Aureole 1 Rocket 3.8 18:43:38 10° NNW 18:49:36 64° NNE 18:49:36 64° NNE
USA 215 3.8 18:59:01 41° SSE 18:59:01 41° SSE 19:03:59 10° SSW
Cosmos 540 Rocket 3.9 18:53:01 10° SSW 18:56:54 53° SSW 18:56:54 53° SSW
ATLAS 2AS CENTAUR R/B 3.7 18:53:20 10° S 18:57:06 30° SSE 18:57:06 30° SSE
Cosmos 2333 Rocket 3.1 18:57:32 10° NNW 19:01:15 38° N 19:01:15 38° N
CSL-04 Rocket 4.3 19:05:32 46° NNW 19:05:32 46° NNW 19:09:12 10° NNW
Cosmos 1980 Rocket 3.9 18:59:35 10° NW 19:04:26 31° WSW 19:09:16 10° SSW
Cosmos 1763 Rocket 3.8 19:00:01 10° SSW 19:04:21 59° WSW 19:04:21 59° WSW
USA 229 DEB 4.1 19:14:29 10° NW 19:20:58 58° NNE 19:20:58 58° NNE
Cosmos 2219 Rocket 4.1 19:16:40 10° NNW 19:18:23 19° N 19:18:23 19° N
USA 229 4.1 19:14:34 10° NW 19:21:02 57° NNE 19:21:02 57° NNE
ISS -0.2 19:19:10 10° WNW 19:19:19 11° WNW 19:19:19 11° WNW
Resurs 01 Rocket 4.2 19:26:23 10° SW 19:29:30 19° W 19:32:38 10° NW
USA 267 3.4 19:33:46 66° NW 19:33:46 66° NW 19:39:21 10° NW
Cosmos 2360 Rocket 3.9 19:29:50 10° NNW 19:31:59 24° NNW 19:31:59 24° NNW
Cosmos 2082 Rocket 3.3 19:34:04 10° SW 19:38:37 41° WNW 19:38:37 41° WNW
SL-16 R/B 3.6 19:40:01 10° NNW 19:43:11 33° NW 19:43:11 33° NW
ATLAS 3B R/B 3.9 20:13:43 10° NW 20:18:39 43° NW 20:18:39 43° NW
